< < Back
Terminal Aerodrome Forecast


Current Version              Previous Versions:   1  2  3  4  5  6  7  8  9  

Terminal Aerodrome Forecast

210
FTUS42 KJAX 170600 AAA
TAFGNV
TAF AMD
KGNV 170653Z 1707/1806 03009KT P6SM SCT020 BKN030
      TEMPO 1708/1712 BKN020
     FM171300 05013KT P6SM BKN025
     FM171600 06014G24KT P6SM SCT030 BKN250
     FM172100 07013G23KT P6SM BKN030
     FM180100 06010KT P6SM BKN025=



Latest METAR

761
SAUS70 KWBC 171000 RRG
MTRGNV
METAR KGNV 170953Z AUTO 01005KT 8SM OVC027 12/11 A3020 RMK AO2 SLP225
T01170106


USA.gov is the U.S. government's official web portal to all federal, state and local government web resources and services.